INMARSAT 3-F2 1 24307U 96053A 25187.52059287 -.00000307 00000-0 00000-0 0 9991 2 24307 9.0701 57.3688 0006917 49.9200 145.4023 1.00000929105465 ARTEMIS 1 26863U 01029A 25187.34216823 -.00000267 00000-0 00000-0 0 9995 2 26863 14.5901 9.0735 0015303 164.7358 194.5614 0.99294247 40412 ANIK F1-R 1 28868U 05036A 25187.54292112 -.00000061 00000-0 00000-0 0 9993 2 28868 3.4243 80.9246 0003778 16.7212 275.2588 1.00271584 42981 GALAXY 15 1 28884U 05041A 25187.56620507 -.00000102 00000-0 00000-0 0 9998 2 28884 2.6363 81.0718 0014427 125.9891 293.3838 0.98942283 72022 INMARSAT 4-F2 1 28899U 05044A 25187.59722184 -.00000248 00000-0 00000-0 0 9995 2 28899 4.6457 43.5257 0002181 64.4342 175.3471 1.00271679 72050 HIMAWARI 7 1 28937U 06004A 25187.56246921 -.00000189 00000-0 00000-0 0 9996 2 28937 4.8903 77.2383 0007069 141.3268 260.5661 0.99079490 70800 INMARSAT 4-F3 1 33278U 08039A 25187.54474561 -.00000127 00000-0 00000-0 0 9993 2 33278 4.0035 30.0132 0002430 81.8400 271.0226 1.00272056 43073 QZS-1 (MICHIBIKI) 1 37158U 10045A 25186.59650464 -.00000023 00000-0 00000-0 0 9991 2 37158 43.7614 120.2032 0003802 30.3408 148.2448 0.87716007 53355 GSAT 8 1 37605U 11022A 25187.57506686 .00000100 00000-0 00000-0 0 9994 2 37605 1.2359 86.3223 0001944 167.7444 292.8157 1.00272579 49750 LUCH 5A 1 37951U 11074B 25187.62763523 -.00000040 00000-0 00000-0 0 9990 2 37951 7.8732 78.9902 0003648 43.9480 194.8600 1.00269960 49585 SES 5 1 38652U 12036A 25187.13687858 .00000051 00000-0 00000+0 0 9990 2 38652 0.0310 342.7649 0002368 114.6462 241.2074 1.00275683 47595 GSAT 10 1 38779U 12051B 25187.58068248 -.00000148 00000-0 00000-0 0 9991 2 38779 0.0561 266.7476 0008576 191.9058 118.1949 1.00271887 46631 LUCH 5B 1 38977U 12061A 25187.41811736 -.00000129 00000-0 00000-0 0 9991 2 38977 9.7314 53.2232 0004074 121.1336 244.5254 1.00271610 46148 ASTRA 5B 1 39617U 14011B 25187.56881148 .00000154 00000-0 00000-0 0 9997 2 39617 0.0775 303.9076 0002128 162.5496 46.5943 1.00271032 41205 LUCH 5V 1 39727U 14023A 25187.59184374 -.00000256 00000-0 00000-0 0 9996 2 39727 4.2651 73.0618 0002393 66.0381 93.5352 1.00271355 40896 GSAT 15 1 41028U 15065A 25187.59102089 -.00000241 00000-0 00000-0 0 9997 2 41028 0.0398 243.8173 0003744 202.2273 145.0367 1.00273069 35339 QZS-2 1 42738U 17028A 25187.01972690 -.00000123 00000-0 00000-0 0 9996 2 42738 39.9623 248.2126 0758348 269.4216 275.6993 1.00279419 4152